Tiempo atmosférico en la estación meteorológica de Jaraicejo, Cáceres (510 m.)



Fecha
DESCASC
Temp. máxima en grados centígrados (hora)
DESCASC
Temp. mínima en grados centígrados (hora)
DESCASC
Temp. media en grados centígrados
DESCASC
Racha de viento máxima en m/sg (hora)
DESCASC
Velocidad máxima media en intervalos de 10 minutos(hora)
DESCASC
Precipitaciones diarias en mm
DESCASC
Precipitaciones de 00:00 a 06:00 en mm
DESCASC
Precipitaciones de 06:00 a 12:00 en mm
DESCASC
Precipitaciones de 12:00 a 18:00 en mm
DESCASC
Precipitaciones de 18:00 a 24:00 en mm
DESCASC
16-01-2020 14.5 (14:40) 9.3 (08:30) 11.9 9.17 (23:30) 5.56 (15:10) 0 0 0 0 0
15-01-2020 12 (16:20) 6.9 (04:10) 9.5 9.17 (11:50) 5.28 (08:50) 0.2 0 0.2 0 0
14-01-2020 11 (14:00) 2 (06:40) 6.5 8.06 (23:00) 4.72 (23:10) 0 0 0 0 0
13-01-2020 11.8 (15:50) 3.8 (06:40) 7.8 5.56 (17:30) 4.17 (17:30) 0 0 0 0 0
12-01-2020 12.3 (15:50) 4 (00:00) 8.2 4.44 (14:50) 3.06 (05:20) 0 0 0 0 0
11-01-2020 11.1 (15:50) 3.9 (00:00) 7.5 10.83 (13:50) 7.5 (13:20) 0 0 0 0 0
10-01-2020 11.3 (15:40) 2.1 (00:00) 6.7 9.44 (12:20) 6.67 (12:00) 0 0 0 0 0
09-01-2020 13.1 (15:10) 4.4 (00:00) 8.8 6.67 (09:50) 5 (09:50) 0 0 0 0 0
08-01-2020 13.7 (16:20) 4.2 (00:00) 8.9 3.89 (07:40) 3.61 (07:50) 0 0 0 0 0
07-01-2020 14.5 (17:00) 5 (00:00) 9.8 3.89 (05:00) 3.61 (05:00) 0 0 0 0 0
06-01-2020 14.3 (15:50) 3.8 (00:00) 9.1 5 (08:40) 4.17 (08:40) 0 0 0 0 0
05-01-2020 13.5 (14:30) 4.3 (00:00) 8.9 8.61 (00:20) 7.22 (02:00) 0 0 0 0 0
04-01-2020 10.3 (13:20) 3.6 (00:00) 7 10.28 (12:50) 8.33 (12:50) 0 0 0 0 0
03-01-2020 9.7 (16:10) 4.5 (00:00) 7.1 5.83 (23:59) 4.44 (23:40) 0 0 0 0 0
02-01-2020 12.8 (13:40) 3.8 (00:00) 8.3 3.61 (14:10) 2.78 (05:10) 0 0 0 0 0
01-01-2020 14.4 (16:10) 5.8 (00:00) 10.1 4.72 (03:30) 3.89 (03:40) 0 0 0 0 0
31-12-2019 14.4 (16:50) 5.4 (00:00) 9.9 5.56 (08:10) 4.44 (08:20) 0 0 0 0 0
30-12-2019 15.1 (16:00) 7 (00:00) 11.1 5.83 (00:40) 5 (00:40) 0 0 0 0 0
29-12-2019 16.3 (13:30) 9.4 (00:00) 12.8 8.06 (07:30) 6.39 (07:50) 0 0 0 0 0
28-12-2019 19.7 (16:00) 9.6 (00:00) 14.7 10 (06:40) 8.33 (06:40) 0 0 0 0 0
27-12-2019 15 (15:40) 9.6 (00:00) 12.3 10 (04:40) 7.78 (05:30) 0 0 0 0 0
26-12-2019 15.5 (14:30) 8.6 (00:00) 12.1 8.89 (22:10) 6.94 (19:50) 0 0 0 0 0
25-12-2019 18.6 (14:30) 10.6 (00:00) 14.6 6.11 (04:20) 5 (04:20) 0 0 0 0 0
24-12-2019 17 (14:20) 7.8 (00:00) 12.4 7.22 (19:00) 5.83 (20:30) 0 0 0 0 0
23-12-2019 13.5 (15:20) 6.4 (00:00) 10 4.17 (00:30) 2.5 (07:40) 0.2 0 0.2 0 0
22-12-2019 14.7 (15:50) 8.3 (00:00) 11.5 14.44 (15:50) 8.61 (13:30) 0 0 0 0 0
21-12-2019 15.8 (13:30) 11 (00:00) 13.4 21.94 (15:40) 13.61 (15:40) 8.6 6.2 2 0.4 0

Gráficas

Temp. máximas Temp. mínimas Temp. medias Precipitaciones Rachas de viento máximas Velocidades máximas media en intervalos de 10 minutos

Datos horarios

Fecha y hora oficial Temperatura (ºC) Velocidad del viento (km/h) Dirección del viento Racha (km/h) Dirección de racha Precipitación (mm) Presión (hPa) Tendencia (hPa) Humedad (%)
2020-01-19 23:00:00 5 23 Nordeste 40 Nordeste 0 -- -- 39
2020-01-19 22:00:00 5.8 29 Nordeste 45 Este 0 -- -- 35
2020-01-19 21:00:00 6.4 24 Nordeste 56 Nordeste 0 -- -- 36
2020-01-19 20:00:00 7.2 27 Nordeste 63 Nordeste 0 -- -- 35
2020-01-19 19:00:00 8.3 27 Nordeste 50 Nordeste 0 -- -- 33
2020-01-19 18:00:00 9.5 33 Nordeste 57 Nordeste 0 -- -- 33
2020-01-19 17:00:00 10.5 18 Nordeste 50 Nordeste 0 -- -- 38
2020-01-19 16:00:00 11 20 Norte 43 Norte 0 -- -- 44
2020-01-19 15:00:00 9.9 22 Norte 56 Nordeste 0 -- -- 47
2020-01-19 14:00:00 10.8 24 Nordeste 48 Nordeste 0 -- -- 51
2020-01-19 13:00:00 10 27 Norte 44 Nordeste 0 -- -- 59
2020-01-19 12:00:00 10.5 20 Norte 33 Norte 0 -- -- 65
2020-01-19 11:00:00 8.5 13 Norte 23 Norte 0 -- -- 75
2020-01-19 10:00:00 6.4 11 Norte 20 Norte 0 -- -- 85
2020-01-19 09:00:00 4.8 12 Norte 22 Noroeste 0 -- -- 89
2020-01-19 08:00:00 4.9 14 Norte 23 Noroeste 0 -- -- 91
2020-01-19 07:00:00 5.6 15 Norte 23 Noroeste 0 -- -- 90
2020-01-19 06:00:00 5.7 16 Noroeste 31 Norte 0 -- -- 91
2020-01-19 05:00:00 5.6 13 Noroeste 26 Noroeste 0 -- -- 93
2020-01-19 04:00:00 6.3 9 Noroeste 21 Noroeste 0 -- -- 89
2020-01-19 03:00:00 6.2 2 Oeste 22 Noroeste 0 -- -- 91
2020-01-19 02:00:00 6.4 8 Oeste 19 Oeste 0 -- -- 93
2020-01-19 01:00:00 6.8 9 Noroeste 21 Oeste 0 -- -- 95
2020-01-19 00:00:00 7.8 10 Oeste 27 Noroeste 0 -- -- 96
2020-01-18 23:00:00 7.9 7 Oeste 27 Sudoeste 0 -- -- 97
2020-01-18 22:00:00 8.5 15 Oeste 30 Sudoeste 0 -- -- 95
2020-01-18 21:00:00 9.6 14 Oeste 35 Oeste 0 -- -- 97
2020-01-18 20:00:00 10.1 7 Oeste 22 Sudoeste 0 -- -- 99
2020-01-18 19:00:00 10.7 9 Oeste 24 Sudoeste 0 -- -- 100
2020-01-18 18:00:00 11.4 16 Sudoeste 25 Sudoeste 0 -- -- 99
2020-01-18 17:00:00 11.3 9 Sudoeste 17 Sudoeste 0 -- -- 99
2020-01-18 16:00:00 10.9 10 Sudoeste 17 Sudoeste 0 -- -- 99
2020-01-18 15:00:00 9.9 5 Sudeste 10 Sudeste 0.4 -- -- 99
2020-01-18 14:00:00 9.7 6 Sudeste 13 Este 0.4 -- -- 99
2020-01-18 13:00:00 9 10 Este 22 Este 0.6 -- -- 99
2020-01-18 12:00:00 8.7 11 Este 21 Sudeste 0.8 -- -- 99
2020-01-18 11:00:00 8.4 14 Este 27 Sudeste 1 -- -- 99
2020-01-18 10:00:00 8.2 14 Sudeste 25 Sudeste 1.2 -- -- 99
2020-01-18 09:00:00 8.3 11 Sudeste 20 Este 1 -- -- 98
2020-01-18 08:00:00 7.9 12 Este 22 Este 2.2 -- -- 98
2020-01-18 07:00:00 8.1 11 Nordeste 18 Este 0.8 -- -- 95
2020-01-18 06:00:00 8.3 7 Este 14 Sudeste 0.2 -- -- 91
2020-01-18 05:00:00 8.6 7 Sudeste 15 Sudeste 0.2 -- -- 88
2020-01-18 04:00:00 8.4 10 Sudeste 16 Este 0 -- -- 86
2020-01-18 03:00:00 8.1 7 Este 17 Este 0 -- -- 87
2020-01-18 02:00:00 8.3 7 Sudeste 12 Sudeste 0 -- -- 87
2020-01-18 01:00:00 8.3 5 Sudeste 9 Sudeste 0 -- -- 87
2020-01-18 00:00:00 8.4 4 Sudeste 13 Este 0 -- -- 84
2020-01-17 23:00:00 8.1 6 Sudeste 11 Sudeste 0 -- -- 83
2020-01-17 22:00:00 8.3 8 Sudeste 12 Este 0 -- -- 83
2020-01-17 21:00:00 8.8 6 Sudeste 9 Sudeste 0 -- -- 82
2020-01-17 20:00:00 8.8 0 Calma 11 Sudoeste 0 -- -- 81
2020-01-17 19:00:00 9.5 7 Sudoeste 10 Sudoeste 0 -- -- 79
2020-01-17 18:00:00 10.7 5 Sudoeste 9 Sudoeste 0 -- -- 69
2020-01-17 17:00:00 13.3 5 Oeste 22 Sudoeste 0 -- -- 61
2020-01-17 16:00:00 13.7 10 Oeste 22 Sudoeste 0 -- -- 64
2020-01-17 15:00:00 12.3 9 Sudoeste 24 Sudoeste 0 -- -- 71
2020-01-17 14:00:00 12.6 12 Sudoeste 23 Sudoeste 0 -- -- 72
2020-01-17 13:00:00 10.9 12 Sudoeste 26 Sudoeste 0 -- -- 85
2020-01-17 12:00:00 9.1 10 Sudoeste 20 Sudoeste 0 -- -- 98
2020-01-17 11:00:00 8.2 8 Sudoeste 19 Sudoeste 0 -- -- 99
2020-01-17 10:00:00 7.9 11 Sudoeste 20 Sudoeste 0 -- -- 99
2020-01-17 09:00:00 7.9 9 Sudoeste 18 Sudoeste 0 -- -- 99
2020-01-17 08:00:00 8.2 4 Sudoeste 15 Sudoeste 0 -- -- 98
2020-01-17 07:00:00 8.2 9 Sudoeste 16 Sudoeste 0 -- -- 98
2020-01-17 06:00:00 8.3 10 Sudoeste 16 Sur 0 -- -- 97
2020-01-17 05:00:00 8.6 9 Sudoeste 17 Sudoeste 0 -- -- 96
2020-01-17 04:00:00 8.8 11 Sudoeste 20 Sudoeste 0 -- -- 95
2020-01-17 03:00:00 8.8 12 Sudoeste 18 Sudoeste 0 -- -- 90
2020-01-17 02:00:00 8.8 9 Sur 26 Sur 0 -- -- 84
2020-01-17 01:00:00 8.7 13 Sur 26 Sur 0 -- -- 88
2020-01-17 00:00:00 10 18 Sudoeste 33 Sudoeste 0 -- -- 74
2020-01-16 23:00:00 10.6 17 Sudoeste 29 Sur 0 -- -- 63
2020-01-16 22:00:00 10.3 16 Sur 24 Sur 0 -- -- 64
2020-01-16 21:00:00 10.1 14 Sur 26 Sur 0 -- -- 65
2020-01-16 20:00:00 10.6 13 Sur 20 Sur 0 -- -- 62
2020-01-16 19:00:00 11.2 10 Sur 19 Sur 0 -- -- 63
2020-01-16 18:00:00 12.3 13 Sur 26 Sur 0 -- -- 65
2020-01-16 17:00:00 13.9 18 Sur 31 Sur 0 -- -- 59
2020-01-16 16:00:00 13.6 18 Sudoeste 32 Sur 0 -- -- 59
2020-01-16 15:00:00 14.4 19 Sur 30 Sur 0 -- -- 57
2020-01-16 14:00:00 13.9 16 Sur 29 Sur 0 -- -- 59
2020-01-16 13:00:00 13.2 14 Sur 29 Sur 0 -- -- 66
2020-01-16 12:00:00 12.6 9 Sur 19 Sur 0 -- -- 76
2020-01-16 11:00:00 11.4 9 Sudeste 14 Sudeste 0 -- -- 82
2020-01-16 10:00:00 10.4 7 Sudeste 12 Sudeste 0 -- -- 88
2020-01-16 09:00:00 9.3 6 Sudeste 15 Sudeste 0 -- -- 93
2020-01-16 08:00:00 9.6 8 Sudeste 15 Sudeste 0 -- -- 93
2020-01-16 07:00:00 9.7 9 Sudeste 17 Sudeste 0 -- -- 93
2020-01-16 06:00:00 9.9 10 Sudeste 16 Este 0 -- -- 93
2020-01-16 05:00:00 10 10 Sudeste 23 Sudeste 0 -- -- 93
2020-01-16 04:00:00 10.1 10 Sudeste 17 Sudeste 0 -- -- 93
2020-01-16 03:00:00 10.2 9 Sudeste 18 Sudeste 0 -- -- 91
2020-01-16 02:00:00 10.4 11 Sudeste 18 Sudeste 0 -- -- 91
2020-01-16 01:00:00 10.5 11 Sudeste 18 Sudeste 0 -- -- 91
2020-01-16 00:00:00 10.7 10 Sudeste 14 Sudeste 0 -- -- 90
2020-01-15 23:00:00 10.6 8 Sur 18 Sudeste 0 -- -- 89
2020-01-15 22:00:00 10.6 9 Sudeste 16 Sudeste 0 -- -- 89
2020-01-15 21:00:00 10.8 9 Sudeste 18 Sudeste 0 -- -- 87
2020-01-15 20:00:00 11.1 8 Sudeste 15 Sudeste 0 -- -- 86
2020-01-15 19:00:00 11.1 9 Sudeste 16 Sudeste 0 -- -- 85
2020-01-15 18:00:00 11.7 10 Sur 18 Sur 0 -- -- 83
2020-01-15 17:00:00 11.7 10 Sur 24 Sur 0 -- -- 82
2020-01-15 16:00:00 11.3 10 Sur 21 Sur 0 -- -- 83
2020-01-15 15:00:00 10.6 16 Sur 27 Sur 0 -- -- 84
2020-01-15 14:00:00 10.1 15 Sur 27 Sur 0 -- -- 84
2020-01-15 13:00:00 9.7 14 Sur 28 Sur 0 -- -- 83
2020-01-15 12:00:00 9.4 15 Sur 33 Sur 0 -- -- 82
2020-01-15 11:00:00 9 15 Sur 32 Sur 0 -- -- 82
2020-01-15 10:00:00 8.5 18 Sur 32 Sur 0 -- -- 80
2020-01-15 09:00:00 8.3 18 Sur 32 Sur 0 -- -- 78
2020-01-15 08:00:00 8 15 Sur 24 Sur 0 -- -- 79
2020-01-15 07:00:00 7.6 14 Sudeste 23 Sudeste 0.2 -- -- 81
2020-01-15 06:00:00 7.4 15 Sudeste 23 Sudeste 0 -- -- 80
2020-01-15 05:00:00 7 12 Sudeste 20 Sudeste 0 -- -- 82
2020-01-15 04:00:00 7 9 Sudeste 19 Sur 0 -- -- 84
2020-01-15 03:00:00 7.3 6 Sudeste 21 Sur 0 -- -- 84
2020-01-15 02:00:00 7.5 15 Sur 26 Sur 0 -- -- 84
2020-01-15 01:00:00 7.6 13 Sur 22 Sur 0 -- -- 84
2020-01-15 00:00:00 8.4 15 Sur 25 Sur 0 -- -- 82
2020-01-14 23:00:00 8.6 16 Sur 29 Sur 0 -- -- 81
2020-01-14 22:00:00 8.6 13 Sur 21 Sur 0 -- -- 81
2020-01-14 21:00:00 8.2 11 Sudeste 21 Sudeste 0 -- -- 84
2020-01-14 20:00:00 7.9 10 Sudeste 18 Sur 0 -- -- 87
2020-01-14 19:00:00 8.8 12 Sur 20 Sur 0 -- -- 75
2020-01-14 18:00:00 8.8 9 Sur 17 Sur 0 -- -- 72
2020-01-14 17:00:00 9.4 15 Sudoeste 23 Sudoeste 0 -- -- 69
2020-01-14 16:00:00 10.5 14 Sudoeste 22 Sudoeste 0 -- -- 67
2020-01-14 15:00:00 10.1 9 Sur 22 Sudoeste 0 -- -- 66
2020-01-14 14:00:00 11 12 Sur 19 Sur 0 -- -- 63
2020-01-14 13:00:00 9.8 7 Sudoeste 13 Sudoeste 0 -- -- 68
2020-01-14 12:00:00 8.6 5 Sur 13 Sudeste 0 -- -- 72
2020-01-14 11:00:00 6.8 7 Sudeste 11 Sudeste 0 -- -- 77
2020-01-14 10:00:00 4.1 6 Sudeste 15 Sudeste 0 -- -- 88
2020-01-14 09:00:00 4.3 13 Este 22 Este 0 -- -- 85
2020-01-14 08:00:00 4.2 10 Sudeste 15 Este 0 -- -- 84
2020-01-14 07:00:00 2.6 12 Este 14 Este 0 -- -- 91
2020-01-14 06:00:00 2.8 6 Sudeste 8 Sudeste 0 -- -- 88
2020-01-14 05:00:00 3.4 2 Sur 5 Sudeste 0 -- -- 84
2020-01-14 04:00:00 3.5 4 Sudeste 5 Sudeste 0 -- -- 85
2020-01-14 03:00:00 3.6 6 Sudeste 12 Sudeste 0 -- -- 83
2020-01-14 02:00:00 4.1 6 Sudeste 10 Sudeste 0 -- -- 82
2020-01-14 01:00:00 4 8 Sudeste 12 Sudeste 0 -- -- 82
2020-01-14 00:00:00 4.1 2 Sur 9 Sur 0 -- -- 80
2020-01-13 23:00:00 4.9 6 Sur 13 Sur 0 -- -- 77
2020-01-13 22:00:00 5.5 9 Sur 13 Sur 0 -- -- 75
2020-01-13 21:00:00 6 6 Sur 16 Sur 0 -- -- 74
2020-01-13 20:00:00 6.7 10 Sur 18 Sur 0 -- -- 74
2020-01-13 19:00:00 7.1 9 Sur 20 Sur 0 -- -- 74
2020-01-13 18:00:00 9.9 12 Sudoeste 20 Sudoeste 0 -- -- 58
2020-01-13 17:00:00 11.3 11 Sudoeste 19 Sudoeste 0 -- -- 53
2020-01-13 16:00:00 11.7 8 Oeste 19 Sudoeste 0 -- -- 55
2020-01-13 15:00:00 11.1 12 Sudoeste 19 Sur 0 -- -- 58
2020-01-13 14:00:00 10.2 9 Sudoeste 15 Sudoeste 0 -- -- 60
2020-01-13 13:00:00 9.5 5 Sudoeste 9 Sudoeste 0 -- -- 60
2020-01-13 12:00:00 8.3 3 Sudeste 6 Sur 0 -- -- 67
2020-01-13 11:00:00 7.3 3 Sudeste 8 Sudeste 0 -- -- 70
2020-01-13 10:00:00 5.6 6 Sudeste 13 Sudeste 0 -- -- 72
2020-01-13 09:00:00 3.8 8 Este 15 Sudeste 0 -- -- 76
2020-01-13 08:00:00 4.1 7 Este 13 Este 0 -- -- 73
2020-01-13 07:00:00 3.9 8 Este 11 Este 0 -- -- 75
2020-01-13 06:00:00 4.7 8 Este 11 Este 0 -- -- 73
2020-01-13 05:00:00 4.8 8 Sudeste 12 Este 0 -- -- 71
2020-01-13 04:00:00 4.7 9 Este 12 Sudeste 0 -- -- 70
2020-01-13 03:00:00 4.4 8 Sudeste 12 Sudeste 0 -- -- 71
2020-01-13 02:00:00 4.4 6 Este 11 Este 0 -- -- 72
2020-01-13 01:00:00 4.9 10 Este 13 Este 0 -- -- 72
2020-01-13 00:00:00 5.3 8 Este 14 Sudeste 0 -- -- 71
2020-01-12 23:00:00 5.1 8 Este 11 Este 0 -- -- 72
2020-01-12 22:00:00 5.7 3 Este 3 Este 0 -- -- 68
2020-01-12 21:00:00 6.3 0 Calma 5 Oeste 0 -- -- 65
2020-01-12 20:00:00 7.1 3 Oeste 7 Oeste 0 -- -- 62
2020-01-12 19:00:00 8 4 Oeste 6 Oeste 0 -- -- 60
2020-01-12 18:00:00 11.2 3 Oeste 8 Sudoeste 0 -- -- 52
2020-01-12 17:00:00 12.1 3 Oeste 10 Sur 0 -- -- 47
2020-01-12 16:00:00 12.2 6 Sudoeste 14 Sudoeste 0 -- -- 44
2020-01-12 15:00:00 11.9 6 Sudoeste 16 Sudoeste 0 -- -- 48
2020-01-12 14:00:00 11.1 6 Sudoeste 14 Sudoeste 0 -- -- 54
2020-01-12 13:00:00 9.9 5 Oeste 11 Oeste 0 -- -- 54
2020-01-12 12:00:00 8.4 5 Sudoeste 8 Sudeste 0 -- -- 61
2020-01-12 11:00:00 7.1 8 Sudeste 13 Sudeste 0 -- -- 67
2020-01-12 10:00:00 6.7 6 Sudeste 9 Sudeste 0 -- -- 65
2020-01-12 09:00:00 4.3 7 Este 12 Sudeste 0 -- -- 72
2020-01-12 08:00:00 4.5 10 Este 14 Sudeste 0 -- -- 70
2020-01-12 07:00:00 4.2 11 Este 15 Este 0 -- -- 72
2020-01-12 06:00:00 4.1 10 Este 16 Sudeste 0 -- -- 72
2020-01-12 05:00:00 4.1 5 Sudeste 7 Este 0 -- -- 70
2020-01-12 04:00:00 4.6 5 Este 10 Este 0 -- -- 68
2020-01-12 03:00:00 5.1 7 Este 10 Este 0 -- -- 66
2020-01-12 02:00:00 5 7 Este 10 Este 0 -- -- 67
2020-01-12 01:00:00 4.8 8 Este 10 Este 0 -- -- 65
2020-01-12 00:00:00 4.9 7 Este 8 Este 0 -- -- 64
2020-01-11 23:00:00 5.9 9 Este 14 Este 0 -- -- 62
2020-01-11 22:00:00 5.4 8 Este 13 Nordeste 0 -- -- 62
2020-01-11 21:00:00 5.5 13 Nordeste 16 Este 0 -- -- 66
2020-01-11 20:00:00 4.7 9 Nordeste 12 Nordeste 0 -- -- 66
2020-01-11 19:00:00 5.7 8 Nordeste 13 Nordeste 0 -- -- 62
2020-01-11 18:00:00 9 7 Nordeste 15 Nordeste 0 -- -- 56
2020-01-11 17:00:00 10.7 10 Nordeste 18 Nordeste 0 -- -- 50
2020-01-11 16:00:00 11.1 14 Nordeste 24 Nordeste 0 -- -- 48
2020-01-11 15:00:00 11 19 Nordeste 28 Nordeste 0 -- -- 49
2020-01-11 14:00:00 10.6 19 Nordeste 39 Nordeste 0 -- -- 47
2020-01-11 13:00:00 9.8 24 Nordeste 31 Nordeste 0 -- -- 53
2020-01-11 12:00:00 9.2 19 Nordeste 36 Nordeste 0 -- -- 53
2020-01-11 11:00:00 8.5 19 Este 34 Este 0 -- -- 54
2020-01-11 10:00:00 6.4 17 Nordeste 28 Nordeste 0 -- -- 64
2020-01-11 09:00:00 4 13 Este 32 Nordeste 0 -- -- 71
2020-01-11 08:00:00 4 15 Nordeste 28 Nordeste 0 -- -- 71
2020-01-11 07:00:00 4.8 19 Nordeste 24 Nordeste 0 -- -- 69
2020-01-11 06:00:00 4.6 11 Nordeste 18 Este 0 -- -- 70
2020-01-11 05:00:00 5.5 16 Este 22 Este 0 -- -- 67
2020-01-11 04:00:00 4.2 11 Nordeste 17 Nordeste 0 -- -- 71
2020-01-11 03:00:00 6.1 10 Nordeste 13 Nordeste 0 -- -- 61
2020-01-11 02:00:00 5.6 10 Nordeste 14 Nordeste 0 -- -- 63
2020-01-11 01:00:00 7 0 Calma 18 Este 0 -- -- 56
2020-01-11 00:00:00 7 8 Nordeste 28 Este 0 -- -- 57
2020-01-10 23:00:00 6.7 10 Este 19 Este 0 -- -- 60
2020-01-10 22:00:00 6.2 7 Este 16 Este 0 -- -- 70
2020-01-10 21:00:00 5.4 5 Este 18 Nordeste 0 -- -- 76
2020-01-10 20:00:00 5.2 8 Nordeste 12 Nordeste 0 -- -- 76
2020-01-10 19:00:00 6.2 8 Norte 18 Nordeste 0 -- -- 73
2020-01-10 18:00:00 8.5 10 Nordeste 18 Nordeste 0 -- -- 66
2020-01-10 17:00:00 10.3 8 Norte 18 Norte 0 -- -- 62
2020-01-10 16:00:00 10.9 10 Norte 22 Nordeste 0 -- -- 61
2020-01-10 15:00:00 10.6 6 Nordeste 32 Este 0 -- -- 58
2020-01-10 14:00:00 10.6 18 Nordeste 32 Nordeste 0 -- -- 53
2020-01-10 13:00:00 9.7 16 Nordeste 34 Nordeste 0 -- -- 58
2020-01-10 12:00:00 9.6 24 Este 32 Este 0 -- -- 60
2020-01-10 11:00:00 7.7 9 Este 28 Este 0 -- -- 78
2020-01-10 10:00:00 5.7 13 Nordeste 31 Nordeste 0 -- -- 87
2020-01-10 09:00:00 3 8 Nordeste 18 Norte 0 -- -- 94
2020-01-10 08:00:00 2.1 8 Norte 14 Norte 0 -- -- 92
2020-01-10 07:00:00 3.2 4 Noroeste 10 Nordeste 0 -- -- 88
2020-01-10 06:00:00 3.2 5 Nordeste 15 Noroeste 0 -- -- 85
2020-01-10 05:00:00 4.3 6 Noroeste 12 Norte 0 -- -- 80
2020-01-10 04:00:00 5.4 5 Oeste 22 Norte 0 -- -- 78
2020-01-10 03:00:00 5.4 6 Oeste 21 Oeste 0 -- -- 85
2020-01-10 02:00:00 5.6 4 Sudeste 18 Oeste 0 -- -- 87
2020-01-10 01:00:00 6.6 3 Oeste 12 Noroeste 0 -- -- 90
2020-01-10 00:00:00 7 3 Noroeste 7 Oeste 0 -- -- 90
2020-01-09 23:00:00 7.6 4 Sur 11 Sudeste 0 -- -- 87
2020-01-09 22:00:00 7.6 6 Sudeste 9 Sudeste 0 -- -- 83
2020-01-09 21:00:00 8 3 Sur 6 Sudoeste 0 -- -- 82
2020-01-09 20:00:00 8 3 Sudoeste 8 Sudoeste 0 -- -- 81
2020-01-09 19:00:00 8.9 5 Sudoeste 9 Sudoeste 0 -- -- 80
2020-01-09 18:00:00 10.7 4 Sudoeste 13 Sudoeste 0 -- -- 74
2020-01-09 17:00:00 12.5 8 Sudoeste 13 Sudoeste -- -- -- 66
2020-01-09 16:00:00 12.6 9 Sudoeste 16 Sudoeste 0 -- -- 64
2020-01-09 15:00:00 12.9 6 Oeste 14 Sudoeste 0 -- -- 66
2020-01-09 14:00:00 11.8 6 Oeste 13 Sudoeste 0 -- -- 72
2020-01-09 13:00:00 10.7 5 Sudoeste 11 Sudoeste 0 -- -- 71
2020-01-09 12:00:00 10.4 6 Sudeste 12 Nordeste 0 -- -- 73
2020-01-09 11:00:00 8.4 0 Calma 9 Sudeste 0 -- -- 79
2020-01-09 10:00:00 7.3 12 Este 24 Nordeste 0 -- -- 79
2020-01-09 09:00:00 4.9 5 Norte 9 Norte 0 -- -- 85
2020-01-09 08:00:00 5.6 3 Este 14 Este 0 -- -- 81
2020-01-09 07:00:00 4.7 12 Este 14 Este 0 -- -- 88
2020-01-09 06:00:00 5.6 2 Norte 9 Este 0 -- -- 83
2020-01-09 05:00:00 6 5 Este 12 Este 0 -- -- 82
2020-01-09 04:00:00 5.9 6 Sudeste 17 Este 0 -- -- 82
2020-01-09 03:00:00 5.8 15 Este 18 Este 0 -- -- 86
2020-01-09 02:00:00 6.1 4 Nordeste 13 Sudeste 0 -- -- 85
2020-01-09 01:00:00 6.7 10 Este 13 Este 0 -- -- 89
2020-01-09 00:00:00 6.7 4 Este 8 Este 0 -- -- 81
2020-01-08 23:00:00 6.8 7 Norte 9 Nordeste 0 -- -- 85
2020-01-08 22:00:00 8.3 4 Norte 5 Norte 0 -- -- 82
2020-01-08 21:00:00 7.7 3 Nordeste 8 Nordeste 0 -- -- 84
2020-01-08 20:00:00 8.4 0 Calma 5 Norte 0 -- -- 79
2020-01-08 19:00:00 8.4 4 Norte -- -- 0 -- -- 80
2020-01-08 18:00:00 11.9 3 Noroeste 9 Oeste 0 -- -- 67
2020-01-08 17:00:00 13.5 4 Sudoeste 9 Sudoeste 0 -- -- 62
2020-01-08 16:00:00 13.4 4 Sudoeste 10 Sudoeste 0 -- -- 61
2020-01-08 15:00:00 12.6 5 Oeste 11 Sudoeste 0 -- -- 62
2020-01-08 14:00:00 12.2 5 Sudoeste 10 Oeste 0 -- -- 64
2020-01-08 13:00:00 10.9 3 Sudoeste 8 Sur 0 -- -- 64
2020-01-08 12:00:00 9.3 4 Sudeste 7 Sur 0 -- -- 71
2020-01-08 11:00:00 8.4 3 Este 6 Este 0 -- -- 77
2020-01-08 10:00:00 5.5 4 Nordeste 12 Nordeste 0 -- -- 87
2020-01-08 09:00:00 4.9 9 Nordeste 12 Nordeste 0 -- -- 86
2020-01-08 08:00:00 5.1 13 Nordeste 14 Nordeste 0 -- -- 86
2020-01-08 07:00:00 4.7 5 Nordeste 10 Nordeste 0 -- -- 86
2020-01-08 06:00:00 5.1 6 Nordeste 10 Este 0 -- -- 80
2020-01-08 05:00:00 4.7 9 Este 10 Este 0 -- -- 76
2020-01-08 04:00:00 6.2 7 Sudeste 10 Sudeste 0 -- -- 74
2020-01-08 03:00:00 6.4 3 Sudeste 4 Sudeste 0 -- -- 82
2020-01-08 02:00:00 6.7 3 Sudeste 4 Sudeste 0 -- -- 80
2020-01-08 01:00:00 7.3 0 Calma 2 Oeste 0 -- -- 75
2020-01-08 00:00:00 6.8 0 Calma 4 Este 0 -- -- 81
2020-01-07 23:00:00 7.4 4 Sudeste 5 Este 0 -- -- 80
2020-01-07 22:00:00 7.6 3 Sudeste 5 Sudeste 0 -- -- 80
2020-01-07 21:00:00 8.2 0 Calma 4 Sudeste 0 -- -- 76
2020-01-07 20:00:00 8.7 2 Noroeste 4 Oeste 0 -- -- 73
2020-01-07 19:00:00 10.1 4 Oeste 6 Oeste 0 -- -- 69
2020-01-07 18:00:00 13 2 Oeste 8 Sudoeste 0 -- -- 61
2020-01-07 17:00:00 14.5 3 Oeste 7 Noroeste 0 -- -- 56
2020-01-07 16:00:00 14.2 3 Oeste 10 Noroeste 0 -- -- 56
2020-01-07 15:00:00 13.5 5 Oeste 12 Noroeste 0 -- -- 64
2020-01-07 14:00:00 13.6 4 Oeste 9 Sudoeste 0 -- -- 58
2020-01-07 13:00:00 12.1 3 Oeste 8 Oeste 0 -- -- 62
2020-01-07 12:00:00 10.9 3 Sur 6 Sur 0 -- -- 67
2020-01-07 11:00:00 10 3 Sudoeste 5 Oeste 0 -- -- 71
2020-01-07 10:00:00 8.5 0 Calma 8 Nordeste 0 -- -- 74
2020-01-07 09:00:00 5.6 5 Nordeste 6 Nordeste 0 -- -- 77
2020-01-07 08:00:00 5.5 2 Nordeste 5 Sudeste 0 -- -- 77
2020-01-07 07:00:00 5.5 0 Calma 9 Nordeste 0 -- -- 75
2020-01-07 06:00:00 5.5 8 Nordeste 13 Nordeste 0 -- -- 79
2020-01-07 05:00:00 5.6 13 Este 14 Nordeste 0 -- -- 76
2020-01-07 04:00:00 5.8 6 Nordeste 13 Nordeste 0 -- -- 75
2020-01-07 03:00:00 5.6 5 Nordeste 9 Nordeste -- -- -- 77
2020-01-07 02:00:00 5.5 4 Nordeste 8 Nordeste 0 -- -- 81
2020-01-07 01:00:00 5.7 6 Nordeste 7 Nordeste 0 -- -- 77
2020-01-07 00:00:00 6.6 5 Este 9 Nordeste 0 -- -- 81
2020-01-06 23:00:00 6.4 8 Este 15 Sudeste 0 -- -- 82
2020-01-06 22:00:00 6.6 10 Este 14 Este 0 -- -- 83
2020-01-06 21:00:00 6.2 5 Nordeste 10 Norte 0 -- -- 82
2020-01-06 20:00:00 6.6 7 Norte 10 Norte 0 -- -- 80
2020-01-06 19:00:00 8.2 3 Norte 7 Norte 0 -- -- 67
2020-01-06 18:00:00 9.3 5 Norte 13 Noroeste 0 -- -- 71
2020-01-06 17:00:00 11.5 10 Norte 15 Norte 0 -- -- 65
2020-01-06 16:00:00 14.2 4 Oeste 9 Oeste 0 -- -- 53
2020-01-06 15:00:00 13.5 4 Sudoeste 10 Oeste 0 -- -- 57
2020-01-06 14:00:00 12.5 4 Sur 10 Oeste 0 -- -- 58
2020-01-06 13:00:00 11.3 5 Sudoeste 9 Oeste 0 -- -- 69
2020-01-06 12:00:00 9.8 3 Sudoeste 6 Noroeste 0 -- -- 74
2020-01-06 11:00:00 8.7 2 Oeste 4 Este 0 -- -- 76
2020-01-06 10:00:00 7.3 3 Este 15 Este 0 -- -- 78